Change the Weather History Date:

Wednesday, September 25, 2013

  Actual Average Record
Temperature  
Mean Temperature 52 °F -  
Max Temperature 62 °F 66 °F 86 °F (2007)
Min Temperature 43 °F 47 °F 28 °F (1989)
Degree Days  
Heating Degree Days 12    
Growing Degree Days 2 (Base 50)    
Moisture  
Dew Point 45 °F    
Average Humidity 76    
Maximum Humidity 98    
Minimum Humidity 54    
Precipitation  
Precipitation 0.00 in - - ()
Sea Level Pressure  
Sea Level Pressure 29.92 in    
Wind  
Wind Speed 4 mph (NNW)    
Max Wind Speed 10 mph    
Max Gust Speed -    
Visibility 10 miles    
Events      
Averages and records for this station are not official NWS values.
T = Trace of Precipitation, MM = Missing Value Source: NWS Daily Summary

Daily Weather History Graph

Daily Weather History Graph

Search for Another Location

Airport or City:

Trip Planner

Search our weather history database for the weather conditions in past years. The results will help you decide how hot, cold, wet, or windy it might be!

Date:

Astronomy

Sep. 25, 2013 Rise Set
Actual Time 6:34 AM EDT 6:34 PM EDT
Civil Twilight 6:05 AM EDT 7:03 PM EDT
Nautical Twilight 5:32 AM EDT 7:36 PM EDT
Astronomical Twilight 4:58 AM EDT 8:09 PM EDT
Moon 10:30 PM EDT (9/25) 12:45 PM EDT (9/25)
Length of Visible Light 12h 57m
Length of Day
12h 00m
Waning Gibbous, 64% of the Moon is Illuminated
Sep 25
Waning Gibbous
Sep 26
Last Quarter
Oct 4
New
Oct 11
First Quarter
Oct 18
Full

Hourly Weather History & Observations

Time (EDT) Temp. Windchill Dew Point Humidity Pressure Visibility Wind Dir Wind Speed Gust Speed Precip Events Conditions
12:58 AM 46.0 °F 44.8 °F 43.2 °F 90% 29.90 in 10.0 mi South 3.5 mph - N/A   Partly Cloudy
1:58 AM 46.2 °F 44.1 °F 43.9 °F 92% 29.90 in 10.0 mi WSW 4.6 mph - N/A   Partly Cloudy
2:58 AM 44.6 °F - 43.3 °F 95% 29.88 in 10.0 mi Calm Calm - N/A   Clear
3:58 AM 43.7 °F - 42.3 °F 95% 29.88 in 10.0 mi WSW 2.3 mph - N/A   Clear
4:58 AM 43.0 °F - 42.1 °F 97% 29.88 in 10.0 mi WNW 1.2 mph - N/A   Clear
5:58 AM 44.6 °F - 44.1 °F 98% 29.88 in 10.0 mi NNE 2.3 mph - N/A   Clear
6:58 AM 44.4 °F 42.0 °F 43.0 °F 95% 29.89 in 10.0 mi NNW 4.6 mph - N/A   Clear
7:58 AM 49.3 °F - 45.9 °F 88% 29.90 in 10.0 mi NW 4.6 mph - N/A   Partly Cloudy
8:58 AM 54.5 °F - 45.3 °F 71% 29.91 in 10.0 mi ENE 4.6 mph - N/A   Partly Cloudy
9:58 AM 58.6 °F - 43.5 °F 57% 29.92 in 10.0 mi NNE 10.4 mph - N/A   Mostly Cloudy
10:58 AM 59.0 °F - 44.4 °F 58% 29.92 in 10.0 mi NNW 5.8 mph - N/A   Mostly Cloudy
11:58 AM 61.7 °F - 45.0 °F 54% 29.92 in 10.0 mi Variable 3.5 mph - N/A   Mostly Cloudy
12:58 PM 61.3 °F - 45.0 °F 55% 29.91 in 10.0 mi Variable 1.2 mph - N/A   Mostly Cloudy
1:58 PM 62.1 °F - 45.5 °F 55% 29.90 in 10.0 mi North 3.5 mph - N/A   Mostly Cloudy
2:58 PM 59.7 °F - 47.5 °F 64% 29.90 in 10.0 mi East 5.8 mph - N/A   Mostly Cloudy
3:58 PM 59.0 °F - 46.4 °F 63% 29.90 in 10.0 mi SE 5.8 mph - N/A   Overcast
4:58 PM 58.3 °F - 47.5 °F 67% 29.91 in 10.0 mi Calm Calm - N/A   Mostly Cloudy
5:58 PM 56.7 °F - 48.2 °F 73% 29.92 in 10.0 mi West 2.3 mph - N/A   Mostly Cloudy
6:58 PM 55.4 °F - 49.3 °F 80% 29.94 in 10.0 mi WSW 3.5 mph - N/A   Mostly Cloudy
7:58 PM 55.4 °F - 50.4 °F 83% 29.95 in 10.0 mi West 4.6 mph - N/A   Mostly Cloudy
8:58 PM 56.1 °F - 48.4 °F 75% 29.96 in 10.0 mi NNW 4.6 mph - N/A   Mostly Cloudy
9:58 PM 55.9 °F - 46.4 °F 70% 29.97 in 10.0 mi North 9.2 mph - N/A   Mostly Cloudy
10:58 PM 55.0 °F - 45.3 °F 70% 29.98 in 10.0 mi North 8.1 mph - N/A   Mostly Cloudy
11:58 PM 54.3 °F - 44.8 °F 70% 29.99 in 10.0 mi North 8.1 mph - N/A   Overcast